[[{"header":{"parameterUnit":"m.s-1","parameterCategory":1,"la1":30.2991,"la2":30.254,"lo1":-89.0895,"lo2":-89.0444,"dy":0.0017,"dx":0.0017,"nx":28,"ny":28,"refTime":"2023-09-03T03:00:00:Z","depth":0,"parameterNumber":2,"parameterNumberName":"U-component_of_WINDS"},"data":[0,0,0,0,0,0,0,0,0,0,0,0,0,0,0,0,0,0,0,0,0,0,0,0,0,0,0,0,0,0,0,0,0,0,0,0,0,0,0,0,0,0,0,0,0,0,0,0,0,0,0,0,0,0,0,0,0,0,-3.1378,-3.1378,0,-3.134,-3.134,-3.134,-3.1251,-3.1249,-3.1247,-3.1246,-3.1209,-3.121,-3.1211,0,0,0,0,0,0,0,0,0,0,0,0,0,-3.1378,-3.1378,-3.1378,-3.1378,-3.1378,-3.1341,-3.134,-3.134,-3.1251,-3.1249,-3.1247,-3.1245,-3.1209,-3.121,-3.1211,0,0,0,0,0,0,0,0,0,0,0,0,0,-3.1363,-3.1378,-3.1379,-3.1329,-3.1324,-3.1341,-3.134,-3.1339,-3.1252,-3.1249,-3.1246,-3.1244,-3.1209,-3.121,-3.1211,-3.1273,0,0,-3.1214,-3.1215,0,0,0,0,0,0,0,0,-3.1364,-3.1363,-3.1337,-3.1332,-3.1327,-3.1298,-3.1326,-3.1317,-3.1253,-3.128,-3.1246,-3.1242,-3.1241,-3.1239,-3.1238,-3.1271,-3.127,-3.1215,-3.1215,-3.1216,-3.1216,0,0,0,0,0,0,0,-3.1365,-3.1364,-3.1363,-3.1337,-3.1331,-3.131,-3.1305,-3.1324,-3.1276,-3.1277,-3.127,-3.1267,-3.1238,-3.1238,-3.1237,-3.1269,-3.1214,-3.1215,-3.1216,-3.1217,-3.1353,-3.1356,0,0,0,0,0,0,-3.1373,-3.1366,-3.1365,-3.1362,-3.1339,-3.1312,-3.1306,-3.131,-3.1276,-3.1268,-3.1269,-3.1263,-3.1237,-3.1236,-3.1235,-3.1307,-3.1216,-3.1217,-3.1217,-3.135,-3.1354,-3.1357,0,0,0,0,0,0,-3.1373,-3.1374,-3.1366,-3.1362,-3.136,-3.1315,-3.132,-3.1311,-3.131,-3.127,-3.1261,-3.1278,-3.1235,-3.1234,-3.1265,-3.1304,-3.1217,-3.1218,-3.1347,-3.1352,-3.1356,-3.145,0,0,0,0,0,0,-3.1373,-3.1374,-3.1396,-3.1363,-3.136,-3.1395,-3.1322,-3.1312,-3.1312,-3.1303,-3.1275,-3.1268,-3.1233,-3.1263,-3.1266,-3.1304,-3.1219,-3.1343,-3.1349,-3.1354,-3.1443,-3.1457,-3.1469,0,0,0,0,0,-3.1374,-3.1425,-3.1398,-3.1398,-3.1387,-3.1398,-3.1396,-3.1353,-3.1316,-3.1338,-3.1313,-3.1269,-3.13,-3.1267,-3.1269,-3.1309,-3.1341,-3.1347,-3.1354,-3.1437,-3.1454,-3.1469,0,0,0,0,0,0,-3.1464,-3.1419,-3.1389,-3.1431,-3.1419,-3.1383,-3.141,-3.1372,-3.1371,-3.1363,-3.1311,-3.1306,-3.1344,-3.1329,-3.1294,-3.1368,-3.1313,-3.1321,-3.1376,-3.1392,-3.1405,-3.1408,-3.122,0,0,0,0,0,-3.1489,-3.15,-3.1461,-3.1502,-3.1497,-3.1455,-3.1458,-3.1426,-3.1412,-3.1406,-3.1383,-3.1372,-3.1379,-3.1384,-3.1389,-3.1441,-3.1434,-3.1469,-3.1482,-3.1493,-3.15,-3.1528,-3.1544,-3.1379,-3.1379,-3.1379,0,0,-3.154,-3.1517,-3.1527,-3.1519,-3.1506,-3.152,-3.1451,-3.1469,-3.1479,-3.1409,-3.1437,-3.142,-3.1404,-3.1446,-3.1464,-3.1435,-3.1544,-3.1501,-3.151,-3.1511,-3.1537,-3.1552,-3.1566,-3.1384,-3.1383,-3.1382,0,0,-3.164,-3.1624,-3.1656,-3.1645,-3.1626,-3.1598,-3.1606,-3.1576,-3.1562,-3.1589,-3.1537,-3.1549,-3.1562,-3.1553,-3.155,-3.165,-3.161,-3.1653,-3.1721,-3.1749,-3.1762,-3.1773,-3.181,-3.1823,-3.166,-3.166,-3.1661,0,-3.1706,-3.1725,-3.1678,-3.1699,-3.1698,-3.1635,-3.1668,-3.166,-3.1644,-3.1645,-3.1613,-3.1629,-3.1614,-3.1654,-3.1678,-3.1678,-3.1686,-3.1656,-3.1764,-3.1774,-3.1784,-3.1819,-3.1833,-3.1666,-3.1665,-3.1665,-3.1664,0,-3.1808,-3.1822,-3.1851,-3.1837,-3.1838,-3.1866,-3.1824,-3.1832,-3.1801,-3.1777,-3.1806,-3.1785,-3.1785,-3.1792,-3.1762,-3.1829,-3.1812,-3.1773,-3.1717,-3.1806,-3.1838,-3.185,-3.1673,-3.1671,-3.167,-3.1669,0,0,-3.1963,-3.1924,-3.1935,-3.1929,-3.1904,-3.1914,-3.194,-3.1939,-3.1947,-3.1939,-3.196,-3.1973,-3.1937,-3.1934,-3.1902,-3.1927,-3.2009,-3.1885,-3.1884,-3.191,-3.2083,-3.2113,-3.2129,-3.1983,-3.1985,-3.1987,-3.2085,0,-3.2058,-3.2098,-3.2058,-3.2107,-3.212,-3.2061,-3.2084,-3.2072,-3.2051,-3.206,-3.2036,-3.2047,-3.1998,-3.1996,-3.2018,-3.1995,-3.2043,-3.1987,-3.2003,-3.2004,-3.2009,-3.2145,-3.2177,-3.227,-3.2097,-3.2099,-3.2101,0,-3.2174,-3.2171,-3.2222,-3.2195,-3.2199,-3.222,-3.2217,-3.2226,-3.2212,-3.2195,-3.2193,-3.2154,-3.2179,-3.2125,-3.2159,-3.2121,-3.2126,-3.2116,-3.2118,-3.2118,-3.2058,-3.215,-3.2299,-3.2314,-3.2119,-3.2118,-3.2116,0,-3.2283,-3.2292,-3.2324,-3.232,-3.229,-3.2306,-3.2294,-3.2278,-3.228,-3.2278,-3.228,-3.2281,-3.2282,-3.2284,-3.2248,-3.2211,-3.2288,-3.2229,-3.2275,-3.2276,-3.2294,-3.2293,-3.2446,-3.2296,-3.2296,-3.2296,-3.2295,0,-3.2394,-3.2427,-3.2372,-3.2392,-3.2428,-3.2382,-3.242,-3.2402,-3.2388,-3.2405,-3.2354,-3.2371,-3.2321,-3.2333,-3.2305,-3.2339,-3.2339,-3.2327,-3.232,-3.2332,-3.2334,-3.2334,-3.2327,-3.2299,-3.2299,-3.2298,-3.2297,0,-3.2522,-3.2486,-3.2517,-3.2486,-3.248,-3.2508,-3.2482,-3.25,-3.2476,-3.2497,-3.25,-3.2462,-3.2474,-3.2438,-3.2443,-3.2425,-3.2474,-3.2455,-3.2479,-3.2473,-3.2521,-3.2518,-3.268,-3.27,-3.2537,-3.2539,-3.254,0,-3.2595,-3.2619,-3.2591,-3.2598,-3.259,-3.2601,-3.2604,-3.256,-3.2566,-3.2553,-3.2573,-3.258,-3.2583,-3.2605,-3.2579,-3.2584,-3.2565,-3.2622,-3.2565,-3.2578,-3.2567,-3.2566,-3.2569,-3.2634,-3.2636,-3.2637,-3.2639,0,-3.2728,-3.271,-3.2715,-3.2716,-3.272,-3.2719,-3.2713,-3.2722,-3.2675,-3.2684,-3.2695,-3.2698,-3.2704,-3.2713,-3.2712,-3.2701,-3.2663,-3.2657,-3.2668,-3.2681,-3.2694,-3.2689,-3.2511,-3.2653,-3.2652,-3.2651,-3.265,-3.2649,-3.2831,-3.2851,-3.2835,-3.2843,-3.2835,-3.2832,-3.2847,-3.2825,-3.2834,-3.2835,-3.2809,-3.2826,-3.2813,-3.2809,-3.2802,-3.2816,-3.279,-3.2805,-3.2809,-3.2814,-3.2823,-3.2692,-3.2815,-3.2815,-3.2814,-3.2814,-3.2814,0,-3.2963,-3.295,-3.2958,-3.2953,-3.296,-3.2923,-3.2916,-3.2925,-3.294,-3.2931,-3.2936,-3.295,-3.2958,-3.2934,-3.2939,-3.2955,-3.2938,-3.2958,-3.2957,-3.2955,-3.2845,-3.2835,-3.2972,-3.2972,-3.2972,-3.2972,-3.2972,-3.2972,-3.3032,-3.3064,-3.3044,-3.3072,-3.3059,-3.3075,-3.3074,-3.3072,-3.3065,-3.3082,-3.3089,-3.3073,-3.3058,-3.3062,-3.3069,-3.3062,-3.3067,-3.3093,-3.308,-3.2978,-3.2963,-3.2948,-3.2939,-3.3095,-3.3095,-3.3189,-3.319,-3.3191]},{"header":{"parameterUnit":"m.s-1","parameterCategory":1,"la1":30.2991,"la2":30.254,"lo1":-89.0895,"lo2":-89.0444,"dy":0.0017,"dx":0.0017,"nx":28,"ny":28,"refTime":"2023-09-03T03:00:00:Z","depth":0,"parameterNumber":3,"parameterNumberName":"V-component_of_WINDS"},"data":[0,0,0,0,0,0,0,0,0,0,0,0,0,0,0,0,0,0,0,0,0,0,0,0,0,0,0,0,0,0,0,0,0,0,0,0,0,0,0,0,0,0,0,0,0,0,0,0,0,0,0,0,0,0,0,0,0,0,0.3048,0.3048,0,0.3026,0.3026,0.3025,0.3052,0.3053,0.3054,0.3055,0.3029,0.3027,0.3025,0,0,0,0,0,0,0,0,0,0,0,0,0,0.3109,0.3108,0.3048,0.3048,0.3048,0.3026,0.3026,0.3025,0.3052,0.3053,0.3054,0.3056,0.3029,0.3027,0.3025,0,0,0,0,0,0,0,0,0,0,0,0,0,0.3084,0.3108,0.3048,0.3058,0.3059,0.3026,0.3026,0.3025,0.3052,0.3053,0.3055,0.3056,0.303,0.3027,0.3025,0.298,0,0,0.3017,0.3016,0,0,0,0,0,0,0,0,0.3086,0.3082,0.3057,0.3058,0.3058,0.3044,0.3038,0.301,0.3051,0.3054,0.3055,0.3057,0.3032,0.303,0.3022,0.2979,0.2977,0.3017,0.3016,0.3015,0.3014,0,0,0,0,0,0,0,0.3088,0.3083,0.3039,0.3057,0.3057,0.3063,0.3061,0.3032,0.3035,0.3054,0.3056,0.3053,0.3033,0.3024,0.3022,0.2977,0.3017,0.3015,0.3014,0.3013,0.2893,0.2891,0,0,0,0,0,0,0.3089,0.3085,0.304,0.3039,0.3076,0.306,0.3058,0.3047,0.3035,0.3035,0.3052,0.3055,0.3028,0.3024,0.3021,0.2965,0.3015,0.3012,0.3011,0.2895,0.2892,0.2891,0,0,0,0,0,0,0.309,0.3084,0.3041,0.3062,0.3057,0.3058,0.3044,0.3045,0.3037,0.3034,0.3034,0.3043,0.3029,0.3024,0.2989,0.2964,0.3011,0.3009,0.2897,0.2894,0.2892,0.2854,0,0,0,0,0,0,0.3091,0.3085,0.3068,0.3062,0.3056,0.3011,0.3043,0.3044,0.3033,0.3036,0.3026,0.3025,0.303,0.2993,0.2987,0.2962,0.3007,0.2899,0.2895,0.2892,0.2858,0.2851,0.2845,0,0,0,0,0,0.3094,0.3059,0.3068,0.3062,0.3036,0.301,0.3006,0.3013,0.3031,0.3014,0.3012,0.3026,0.2969,0.2989,0.2983,0.2956,0.29,0.2896,0.2893,0.2861,0.2852,0.2845,0,0,0,0,0,0,0.3061,0.3058,0.3068,0.303,0.302,0.3014,0.2993,0.3004,0.2988,0.2992,0.3,0.2997,0.296,0.2955,0.2978,0.2911,0.2937,0.2932,0.2915,0.2907,0.2901,0.2901,0.3005,0,0,0,0,0,0.305,0.3031,0.3028,0.2995,0.2989,0.2992,0.2981,0.2987,0.2977,0.2972,0.2968,0.2956,0.2935,0.2921,0.2902,0.2858,0.2854,0.2837,0.283,0.2825,0.2819,0.2793,0.2784,0.2878,0.2878,0.2878,0,0,0.3026,0.3022,0.3009,0.2988,0.2981,0.2959,0.2988,0.2964,0.2947,0.2968,0.2935,0.2931,0.2918,0.2878,0.286,0.2873,0.2793,0.282,0.2816,0.2813,0.2788,0.2779,0.2771,0.2875,0.2876,0.2876,0,0,0.2971,0.2967,0.2937,0.293,0.2919,0.2921,0.2914,0.2907,0.2905,0.2872,0.2887,0.2866,0.2831,0.2821,0.2811,0.2751,0.2762,0.2745,0.271,0.2684,0.2677,0.267,0.2646,0.2638,0.274,0.274,0.274,0,0.2942,0.291,0.292,0.2895,0.2884,0.2904,0.2873,0.2865,0.2848,0.2839,0.2855,0.281,0.2803,0.276,0.2745,0.2737,0.2727,0.2745,0.2678,0.2671,0.2665,0.2642,0.2633,0.2737,0.2738,0.2738,0.2738,0,0.2874,0.2851,0.2829,0.2813,0.28,0.2772,0.2776,0.2762,0.2769,0.2769,0.2734,0.2726,0.2705,0.2696,0.2703,0.2652,0.266,0.2677,0.2703,0.2654,0.2632,0.2623,0.2734,0.2735,0.2736,0.2736,0,0,0.2796,0.2786,0.2777,0.2769,0.2759,0.2741,0.2713,0.2694,0.268,0.2668,0.2643,0.2613,0.2627,0.2616,0.2622,0.26,0.2549,0.2618,0.2618,0.2603,0.249,0.2476,0.2466,0.2558,0.2556,0.2555,0.249,0,0.2738,0.2691,0.2699,0.2652,0.263,0.2648,0.2623,0.2613,0.2612,0.2593,0.2591,0.2569,0.2591,0.2584,0.2563,0.256,0.2526,0.2565,0.2532,0.2531,0.2532,0.2455,0.2441,0.238,0.2482,0.2481,0.248,0,0.2664,0.265,0.2601,0.2592,0.2583,0.2561,0.2543,0.2525,0.2513,0.2514,0.2501,0.2511,0.2481,0.2509,0.2467,0.2493,0.248,0.2476,0.2474,0.2469,0.25,0.2445,0.2361,0.2351,0.2467,0.2468,0.2469,0,0.2609,0.2577,0.2543,0.2536,0.2527,0.251,0.2505,0.2495,0.2482,0.2466,0.2457,0.2438,0.2426,0.241,0.2413,0.2434,0.2369,0.2398,0.2366,0.2366,0.2349,0.235,0.2259,0.2346,0.2346,0.2346,0.2346,0,0.2542,0.2511,0.2518,0.2497,0.2462,0.2471,0.2435,0.2432,0.2423,0.24,0.2416,0.2394,0.2401,0.2379,0.2381,0.2344,0.2339,0.2337,0.2338,0.2334,0.2334,0.2324,0.2327,0.2344,0.2344,0.2345,0.2345,0,0.2474,0.2478,0.2441,0.2435,0.2433,0.2407,0.2401,0.238,0.238,0.2351,0.2345,0.2345,0.2319,0.2322,0.2293,0.2295,0.2248,0.2255,0.2252,0.2252,0.2219,0.2221,0.2116,0.2102,0.2201,0.22,0.2199,0,0.2429,0.2405,0.2397,0.2383,0.2377,0.2354,0.2341,0.235,0.2335,0.232,0.23,0.2276,0.2257,0.2216,0.2212,0.219,0.2194,0.2159,0.2191,0.2187,0.219,0.219,0.2187,0.2152,0.2151,0.215,0.2149,0,0.2349,0.2352,0.2333,0.2315,0.2299,0.2284,0.2271,0.2259,0.2265,0.2248,0.2223,0.2208,0.2179,0.2154,0.2133,0.2126,0.2137,0.214,0.2131,0.2125,0.2123,0.2121,0.2232,0.2141,0.2142,0.2143,0.2143,0.2144,0.2289,0.2268,0.2258,0.2236,0.2227,0.2215,0.2194,0.2192,0.2171,0.2149,0.2155,0.2125,0.2113,0.2086,0.2077,0.2053,0.2065,0.2053,0.2049,0.2045,0.204,0.213,0.2049,0.205,0.205,0.205,0.205,0,0.2208,0.2202,0.2182,0.2163,0.2145,0.216,0.2146,0.2129,0.2103,0.2092,0.2073,0.2042,0.2018,0.2013,0.199,0.1971,0.1976,0.1964,0.1964,0.1962,0.2031,0.204,0.1961,0.1961,0.1961,0.1961,0.1961,0.1961,0.2163,0.2127,0.2129,0.2088,0.2083,0.2054,0.2045,0.2032,0.2022,0.1988,0.1969,0.1966,0.1956,0.1932,0.1909,0.1908,0.1898,0.1884,0.1884,0.1949,0.1957,0.1966,0.1974,0.1882,0.1882,0.1816,0.1816,0.1815]}]]